[[{"header":{"parameterUnit":"m.s-1","parameterCategory":1,"la1":30.2991,"la2":30.254,"lo1":-89.0895,"lo2":-89.0444,"dy":0.0017,"dx":0.0017,"nx":28,"ny":28,"refTime":"2025-09-10T21:00:00:Z","depth":0,"parameterNumber":2,"parameterNumberName":"U-component_of_WINDS"},"data":[0,0,0,0,0,0,0,0,0,0,0,0,0,0,0,0,0,0,0,0,0,0,0,0,0,0,0,0,0,0,0,0,0,0,0,0,0,0,0,0,0,0,0,0,0,0,0,0,0,0,0,0,0,0,0,0,0,0,0.3656,0.3658,0,0.3784,0.3785,0.3787,0.3852,0.3852,0.3853,0.3853,0.3985,0.3988,0.3992,0,0,0,0,0,0,0,0,0,0,0,0,0,0.3469,0.3472,0.3656,0.3658,0.3659,0.3784,0.3785,0.3787,0.3852,0.3853,0.3853,0.3853,0.3984,0.3988,0.3992,0,0,0,0,0,0,0,0,0,0,0,0,0,0.3569,0.3473,0.3656,0.3707,0.3713,0.3783,0.3785,0.3788,0.3852,0.3853,0.3853,0.3853,0.3982,0.3987,0.3992,0.4023,0,0,0.4008,0.4011,0,0,0,0,0,0,0,0,0.3563,0.3575,0.3698,0.3703,0.371,0.3802,0.3768,0.3866,0.3852,0.3799,0.3853,0.3853,0.3924,0.3934,0.3958,0.4029,0.4034,0.4009,0.4012,0.4014,0.4016,0,0,0,0,0,0,0,0.3556,0.357,0.3707,0.3699,0.3707,0.3723,0.3738,0.3787,0.386,0.3804,0.3809,0.3823,0.3928,0.3953,0.3961,0.4036,0.4009,0.4013,0.4016,0.4018,0.4137,0.4137,0,0,0,0,0,0,0.3541,0.3564,0.3703,0.3711,0.3635,0.3727,0.3743,0.3773,0.3859,0.3873,0.3823,0.3826,0.3944,0.3955,0.3966,0.4007,0.4014,0.4019,0.4022,0.4137,0.4137,0.4137,0,0,0,0,0,0,0.3536,0.3552,0.3698,0.3639,0.3658,0.373,0.3763,0.3775,0.38,0.3874,0.3887,0.3835,0.3944,0.3959,0.4008,0.4012,0.4021,0.4026,0.4137,0.4137,0.4137,0.4087,0,0,0,0,0,0,0.3531,0.355,0.3563,0.3639,0.3661,0.3736,0.3763,0.3778,0.3809,0.3814,0.3889,0.3901,0.3946,0.4,0.4013,0.4019,0.403,0.4137,0.4137,0.4137,0.4089,0.4086,0.4083,0,0,0,0,0,0.3524,0.3544,0.3563,0.3579,0.3678,0.3737,0.375,0.38,0.3809,0.3822,0.3869,0.3899,0.4009,0.4004,0.402,0.4028,0.4137,0.4137,0.4137,0.409,0.4086,0.4083,0,0,0,0,0,0,0.3468,0.3555,0.3577,0.3623,0.3671,0.3748,0.3765,0.3794,0.3842,0.3845,0.3905,0.3922,0.3964,0.4001,0.3994,0.4061,0.4076,0.4079,0.4035,0.4032,0.4029,0.4019,0.4034,0,0,0,0,0,0.3461,0.3501,0.3575,0.3608,0.3631,0.3694,0.3721,0.3755,0.3809,0.383,0.3881,0.3932,0.3978,0.4007,0.4054,0.4094,0.4111,0.4107,0.4104,0.4101,0.4104,0.4127,0.4126,0.4137,0.4137,0.4137,0,0,0.3447,0.3499,0.3521,0.3598,0.364,0.368,0.3711,0.3752,0.3783,0.3837,0.3885,0.3924,0.3985,0.4029,0.4051,0.4061,0.4104,0.4102,0.4099,0.4103,0.4127,0.4126,0.4124,0.4137,0.4137,0.4137,0,0,0.3442,0.3486,0.3517,0.3558,0.3621,0.3662,0.367,0.3741,0.3769,0.3818,0.3859,0.3896,0.3974,0.4016,0.4047,0.4055,0.4084,0.4068,0.4053,0.4075,0.4074,0.4073,0.4075,0.4076,0.407,0.407,0.407,0,0.3417,0.3478,0.353,0.3569,0.3601,0.3651,0.3683,0.372,0.3795,0.3816,0.3826,0.3924,0.3969,0.4023,0.4025,0.4048,0.4058,0.406,0.4069,0.407,0.407,0.4073,0.4073,0.4068,0.4068,0.4068,0.4068,0,0.3444,0.3486,0.3504,0.3574,0.3608,0.3643,0.37,0.3729,0.3759,0.3799,0.3848,0.3903,0.3961,0.3976,0.4007,0.4035,0.4038,0.4058,0.4075,0.4065,0.4069,0.4071,0.4064,0.4065,0.4066,0.4066,0,0,0.3409,0.3505,0.3511,0.3543,0.3615,0.3648,0.3685,0.3741,0.3764,0.3813,0.3846,0.391,0.3928,0.3963,0.3999,0.4018,0.4019,0.4035,0.4037,0.403,0.4052,0.4036,0.4037,0.4039,0.4039,0.404,0.4047,0,0.3413,0.3482,0.3529,0.3579,0.3618,0.3664,0.3696,0.3744,0.3781,0.382,0.3862,0.3906,0.3927,0.3948,0.3969,0.4015,0.4025,0.4015,0.4069,0.4071,0.4053,0.4039,0.4024,0.4027,0.4048,0.4049,0.4049,0,0.3429,0.3475,0.3529,0.3595,0.3613,0.3641,0.3695,0.3731,0.3786,0.3812,0.385,0.3886,0.3926,0.3939,0.3995,0.3988,0.4013,0.4038,0.4039,0.4047,0.4059,0.4045,0.403,0.403,0.4052,0.4052,0.4051,0,0.3397,0.3473,0.3515,0.354,0.3619,0.3637,0.3671,0.3725,0.3755,0.3802,0.3822,0.3874,0.3902,0.3941,0.3989,0.3994,0.4041,0.4058,0.4063,0.4062,0.4071,0.407,0.4059,0.4087,0.4087,0.4087,0.4087,0,0.3397,0.3428,0.3501,0.3527,0.3562,0.3615,0.3649,0.3687,0.3734,0.3767,0.3811,0.3841,0.3904,0.3942,0.398,0.402,0.4033,0.4055,0.4065,0.4051,0.4048,0.4069,0.4069,0.4087,0.4087,0.4087,0.4087,0,0.3368,0.3419,0.3467,0.3536,0.3554,0.3577,0.3637,0.3663,0.3702,0.3744,0.3757,0.3819,0.3866,0.3918,0.3982,0.4008,0.4045,0.406,0.4027,0.4032,0.4035,0.4034,0.4036,0.4039,0.4065,0.4065,0.4065,0,0.3365,0.339,0.3461,0.3486,0.3518,0.3559,0.3589,0.3642,0.3671,0.3734,0.3752,0.3802,0.3845,0.3917,0.3968,0.4017,0.4033,0.403,0.404,0.4025,0.4032,0.403,0.4032,0.4027,0.4027,0.4026,0.4026,0,0.3355,0.3378,0.342,0.3469,0.3504,0.3546,0.359,0.3608,0.3669,0.37,0.3748,0.3781,0.3846,0.3894,0.3949,0.3984,0.4015,0.4022,0.4026,0.4012,0.3991,0.4002,0.4018,0.4022,0.4022,0.4023,0.4023,0.4023,0.3339,0.3362,0.3415,0.346,0.3498,0.3537,0.3565,0.3607,0.3647,0.3704,0.3732,0.3779,0.3832,0.3908,0.3942,0.3979,0.3989,0.3995,0.3997,0.3997,0.3993,0.3985,0.399,0.399,0.399,0.399,0.399,0,0.333,0.3366,0.3406,0.3465,0.35,0.3525,0.3574,0.3601,0.3642,0.3688,0.3728,0.3782,0.3829,0.3882,0.3933,0.3952,0.3967,0.3963,0.3963,0.397,0.3981,0.3973,0.395,0.395,0.395,0.395,0.395,0.395,0.3329,0.3369,0.3398,0.3457,0.3494,0.3539,0.3565,0.3601,0.3638,0.3696,0.3735,0.3769,0.3818,0.3871,0.3915,0.393,0.3946,0.3937,0.3956,0.3966,0.3969,0.3972,0.3965,0.3941,0.3941,0.3941,0.3941,0.3941]},{"header":{"parameterUnit":"m.s-1","parameterCategory":1,"la1":30.2991,"la2":30.254,"lo1":-89.0895,"lo2":-89.0444,"dy":0.0017,"dx":0.0017,"nx":28,"ny":28,"refTime":"2025-09-10T21:00:00:Z","depth":0,"parameterNumber":3,"parameterNumberName":"V-component_of_WINDS"},"data":[0,0,0,0,0,0,0,0,0,0,0,0,0,0,0,0,0,0,0,0,0,0,0,0,0,0,0,0,0,0,0,0,0,0,0,0,0,0,0,0,0,0,0,0,0,0,0,0,0,0,0,0,0,0,0,0,0,0,1.7206,1.7205,0,1.7157,1.7157,1.7156,1.7142,1.7142,1.7142,1.7142,1.7089,1.7088,1.7086,0,0,0,0,0,0,0,0,0,0,0,0,0,1.7281,1.728,1.7206,1.7205,1.7204,1.7158,1.7157,1.7156,1.7142,1.7142,1.7142,1.7142,1.709,1.7088,1.7086,0,0,0,0,0,0,0,0,0,0,0,0,0,1.7242,1.7279,1.7206,1.7192,1.719,1.7158,1.7157,1.7156,1.7142,1.7142,1.7142,1.7143,1.709,1.7088,1.7086,1.7063,0,0,1.7078,1.7077,0,0,0,0,0,0,0,0,1.7244,1.7239,1.7194,1.7192,1.719,1.7156,1.7164,1.7125,1.7141,1.716,1.7142,1.7143,1.7111,1.7107,1.7097,1.706,1.7058,1.7078,1.7076,1.7075,1.7075,0,0,0,0,0,0,0,1.7247,1.7241,1.7186,1.7194,1.7191,1.7186,1.7181,1.7156,1.7134,1.7158,1.7157,1.7152,1.711,1.7099,1.7095,1.7057,1.7078,1.7076,1.7074,1.7073,1.6998,1.6998,0,0,0,0,0,0,1.7253,1.7244,1.7188,1.7185,1.7219,1.7185,1.7179,1.7167,1.7134,1.7129,1.7151,1.7151,1.7103,1.7098,1.7094,1.7064,1.7075,1.7073,1.7072,1.6999,1.6998,1.6998,0,0,0,0,0,0,1.7254,1.7248,1.719,1.7214,1.7206,1.7183,1.7169,1.7165,1.7155,1.7129,1.7124,1.7145,1.7103,1.7097,1.7071,1.7062,1.7072,1.707,1.7,1.6999,1.6998,1.7005,0,0,0,0,0,0,1.7257,1.7249,1.7241,1.7214,1.7205,1.7169,1.7169,1.7164,1.7151,1.715,1.7122,1.7117,1.7103,1.7074,1.7068,1.7059,1.7068,1.7,1.6999,1.6998,1.7005,1.7004,1.7004,0,0,0,0,0,1.7259,1.7244,1.724,1.7234,1.7195,1.7169,1.7163,1.7149,1.715,1.7142,1.7125,1.7118,1.7064,1.7072,1.7065,1.7054,1.7001,1.6999,1.6998,1.7006,1.7005,1.7004,0,0,0,0,0,0,1.7269,1.724,1.7236,1.7212,1.7193,1.7166,1.7155,1.7148,1.7127,1.7127,1.7109,1.7102,1.7077,1.7063,1.7072,1.703,1.7032,1.7029,1.704,1.7039,1.7038,1.7041,1.7066,0,0,0,0,0,1.7269,1.7251,1.7226,1.7207,1.7198,1.7178,1.7166,1.7156,1.7136,1.7127,1.7108,1.7087,1.7066,1.7051,1.703,1.7003,1.6996,1.6993,1.6992,1.6991,1.6989,1.6972,1.697,1.6994,1.6994,1.6994,0,0,1.7267,1.7249,1.7239,1.7209,1.7193,1.7174,1.7171,1.7151,1.7136,1.7124,1.7098,1.7083,1.7058,1.7032,1.7019,1.7019,1.6981,1.699,1.699,1.6987,1.6971,1.6969,1.6967,1.6993,1.6993,1.6993,0,0,1.7255,1.724,1.7222,1.7206,1.7183,1.7169,1.7165,1.7139,1.7129,1.7103,1.7093,1.7075,1.7038,1.702,1.7006,1.6986,1.6979,1.698,1.6975,1.6959,1.6957,1.6956,1.6947,1.6945,1.6978,1.6978,1.6978,0,1.7256,1.7227,1.7213,1.7194,1.718,1.7169,1.7149,1.7134,1.7105,1.7095,1.7096,1.7049,1.7031,1.7,1.6995,1.6985,1.6978,1.6983,1.6959,1.6957,1.6955,1.6947,1.6944,1.6978,1.6978,1.6978,1.6978,0,1.7229,1.7209,1.7197,1.717,1.7155,1.7135,1.7117,1.7103,1.7095,1.7081,1.7054,1.7032,1.7006,1.6998,1.6989,1.6965,1.6965,1.6963,1.6965,1.6953,1.6945,1.6942,1.6978,1.6978,1.6978,1.6978,0,0,1.7221,1.7186,1.7181,1.7168,1.7141,1.7125,1.7105,1.708,1.7068,1.7047,1.7029,1.6998,1.6995,1.698,1.6969,1.6955,1.6939,1.6954,1.6953,1.6951,1.6909,1.691,1.6907,1.6934,1.6934,1.6933,1.691,0,1.7204,1.7168,1.7154,1.7124,1.7105,1.7094,1.7076,1.7057,1.7043,1.7024,1.7008,1.6986,1.6985,1.6975,1.6962,1.6944,1.693,1.6945,1.6915,1.6914,1.6921,1.6902,1.6904,1.6883,1.6907,1.6907,1.6906,0,1.7179,1.716,1.7128,1.7102,1.7094,1.7078,1.7053,1.7036,1.7013,1.7004,1.6986,1.6976,1.6953,1.6956,1.6923,1.6934,1.692,1.691,1.6909,1.6904,1.6909,1.6896,1.6877,1.6873,1.6901,1.6902,1.6902,0,1.7175,1.7141,1.7117,1.7106,1.7076,1.7065,1.7051,1.7029,1.7015,1.6993,1.6983,1.6959,1.6945,1.6926,1.6909,1.6913,1.6876,1.6879,1.6866,1.6867,1.6858,1.6859,1.6835,1.6852,1.6852,1.6852,1.6852,0,1.7157,1.7138,1.7115,1.71,1.7077,1.7061,1.7039,1.7025,1.7005,1.6986,1.6975,1.6957,1.6937,1.6916,1.6902,1.6876,1.687,1.6861,1.6857,1.6861,1.6862,1.6851,1.6852,1.6851,1.6851,1.6851,1.6852,0,1.7149,1.7133,1.7106,1.7079,1.7072,1.7057,1.7033,1.7018,1.7004,1.698,1.6974,1.6951,1.6926,1.6907,1.6875,1.6865,1.6837,1.6833,1.6845,1.6842,1.6831,1.6832,1.6798,1.6792,1.6814,1.6814,1.6814,0,1.7138,1.7123,1.7095,1.7082,1.7069,1.7048,1.7034,1.7017,1.7002,1.6974,1.6962,1.6936,1.6915,1.6875,1.6855,1.6829,1.6824,1.6814,1.682,1.6825,1.6823,1.6823,1.6821,1.6813,1.6813,1.6813,1.6813,0,1.712,1.7112,1.7092,1.7069,1.7052,1.7032,1.7013,1.7002,1.6982,1.6965,1.694,1.6923,1.689,1.6864,1.6837,1.6821,1.6813,1.6811,1.6807,1.681,1.6817,1.6812,1.6841,1.6812,1.6812,1.6812,1.6812,1.6812,1.7109,1.7094,1.7072,1.705,1.7033,1.7015,1.6999,1.6983,1.6962,1.6934,1.6925,1.6899,1.6875,1.6837,1.6822,1.68,1.68,1.6794,1.6792,1.679,1.679,1.6821,1.6795,1.6795,1.6795,1.6795,1.6795,0,1.7089,1.7074,1.7054,1.7027,1.7008,1.7004,1.6981,1.6966,1.6943,1.6922,1.6901,1.6872,1.6846,1.6824,1.6797,1.6784,1.6779,1.6777,1.6777,1.6774,1.6792,1.6798,1.6781,1.6781,1.6781,1.6781,1.6781,1.6781,1.7076,1.7051,1.7041,1.7007,1.6992,1.6967,1.6954,1.6937,1.692,1.6887,1.6866,1.6853,1.6831,1.6802,1.6778,1.6772,1.6762,1.6761,1.6754,1.6771,1.6772,1.6774,1.6779,1.6759,1.6759,1.6737,1.6737,1.6736]}]]